Regional Weather Roundup
Issued by NWS

Home | Current Version | Previous Version | Graphics & Text | Print | Product List | Glossary On
Versions: 1 2 3 4 5 6 7 8 9 10 11 12 13 14 15 16 17 18 19 20 21 22 23 24 25 26 27 28
000
ASUS45 KCYS 051310
RWRWY

WYOMING REGIONAL WEATHER ROUNDUP
NATIONAL WEATHER SERVICE CHEYENNE WY
700 AM MDT THU MAY 05 2016

NOTE:  "FAIR" INDICATES FEW OR NO CLOUDS BELOW 12,000 FEET
WITH NO SIGNIFICANT WEATHER AND/OR OBSTRUCTIONS TO VISIBILITY.

WYZ001-051400-
YELLOWSTONE NATIONAL PARK

CITY           SKY/WX    TMP DP  RH WIND       PRES   REMARKS
LK YELLOWSTONE   N/A     30  27  88 CALM      30.20S
W YELLOWSTONE  NOT AVBL

$$
WYZ002>013-054>058-071-098>099-051400-
NORTHERN WYOMING

CITY           SKY/WX    TMP DP  RH WIND       PRES   REMARKS
JACKSON        CLEAR     36  28  75 CALM      30.14S
CODY           FAIR      57  30  35 W7        30.01R
GREYBULL       FAIR      52  32  46 SE5       29.97R
WORLAND        FAIR      50  41  71 S7        29.98R
SHERIDAN       FAIR      49  41  74 NE5       29.95R
BUFFALO        FAIR      60  35  39 W6        30.00S
GILLETTE       FAIR      52  41  66 SE10      29.99R
HULETT         FAIR      57  41  54 SW3       30.00S
NEWCASTLE      FAIR      46  36  66 CALM      30.03R

$$
WYZ014>020-022>026-101>103-051400-
CENTRAL WYOMING

CITY           SKY/WX    TMP DP  RH WIND       PRES   REMARKS
BIG PINEY      FAIR      36  28  73 CALM      30.18R
PINEDALE       FAIR      34  30  86 NW5       30.19R WCI  30
DUBOIS         FAIR      39  23  52 W13       30.15R WCI  32
LANDER         FAIR      52  31  44 SE5       30.06R
RIVERTON       FAIR      50  36  58 NW8       30.07R
CASPER         FAIR      52  36  54 SW14      30.07R
DOUGLAS        FAIR      42  40  92 CALM      30.07R

$$
WYZ021-027>030-104>119-051400-
SOUTHERN WYOMING

CITY           SKY/WX    TMP DP  RH WIND       PRES   REMARKS
EVANSTON       MOCLDY    51  25  36 SE6       30.13R
KEMMERER         N/A     41  30  65 N5        30.17R
FORT BRIDGER   SUNNY     52  28  40 S6        30.17R
ROCK SPRINGS   FAIR      48  28  46 SE5       30.16R
DIXON          FAIR      42  32  68 SE3       30.22R
RAWLINS        FAIR      43  30  60 CALM      30.19R
SARATOGA       FAIR      41  30  65 CALM      30.22R
LARAMIE        FAIR      39  31  72 S8        30.21R WCI  33
CHEYENNE       FAIR      47  36  65 W8        30.15S
TORRINGTON     FAIR      49  40  71 SE7       30.04S
PINE BLUFFS    FAIR      43  39  87 S3        30.13R

$$




USA.gov is the U.S. government's official web portal to all federal, state and local government web resources and services.